• în Republica Moldova
  • Lista ţărilor
  • Pe 7 zile
  • Temperatura apei
  • Hartă satelitară
  • Meteo pe hartă
  • Widget-uri
  • user-avatar
    Intrare

    Meteo pe oră la Shaki

    Astăzi, 27 Februarie, Luni

    Timp Temperatura Precipitaţii Vânt Presiune Umiditate
    00:00 +4°C° 0 mm 4 m/s 742 mmHg 72%
    01:00 +3°C° 0 mm 4 m/s 742 mmHg 71%
    02:00 +3°C° 0 mm 3 m/s 742 mmHg 71%
    03:00 +1°C° 0 mm 4 m/s 742 mmHg 70%
    04:00 +2°C° 0 mm 3 m/s 742 mmHg 70%
    05:00 +1°C° 0 mm 3 m/s 742 mmHg 69%
    06:00 +2°C° 0 mm 2 m/s 743 mmHg 69%
    07:00 +3°C° 0 mm 2 m/s 742 mmHg 65%
    08:00 +4°C° 0 mm 2 m/s 742 mmHg 61%
    09:00 +5°C° 0 mm 2 m/s 743 mmHg 57%
    10:00 +6°C° 0 mm 2 m/s 742 mmHg 55%
    11:00 +7°C° 0 mm 2 m/s 741 mmHg 53%
    12:00 +8°C° 0 mm 2 m/s 741 mmHg 51%
    13:00 +8°C° 0 mm 2 m/s 740 mmHg 51%
    14:00 +8°C° 0 mm 2 m/s 740 mmHg 50%
    15:00 +9°C° 0 mm 2 m/s 739 mmHg 50%
    16:00 +7°C° 0 mm 2 m/s 739 mmHg 54%
    17:00 +7°C° 0 mm 1 m/s 739 mmHg 59%
    18:00 +5°C° 0 mm 1 m/s 739 mmHg 64%
    19:00 +5°C° 0 mm 1 m/s 739 mmHg 64%
    20:00 +4°C° 0 mm 1 m/s 739 mmHg 63%
    21:00 +4°C° 0 mm 1 m/s 739 mmHg 63%
    22:00 +4°C° 0 mm 1 m/s 739 mmHg 62%
    23:00 +4°C° 0 mm 1 m/s 739 mmHg 62%

    Mâine, 28 Februarie, Marţi

    Timp Temperatura Precipitaţii Vânt Presiune Umiditate
    00:00 +4°C° 0 mm 1 m/s 739 mmHg 62%
    01:00 +3°C° 0 mm 1 m/s 739 mmHg 62%
    02:00 +3°C° 0 mm 1 m/s 739 mmHg 63%
    03:00 +3°C° 0 mm 1 m/s 738 mmHg 63%
    04:00 +3°C° 0 mm 1 m/s 739 mmHg 65%
    05:00 +3°C° 0 mm 1 m/s 739 mmHg 66%
    06:00 +3°C° 0 mm 1 m/s 739 mmHg 67%
    07:00 +5°C° 0 mm 1 m/s 739 mmHg 62%
    08:00 +7°C° 0 mm 1 m/s 740 mmHg 57%
    09:00 +10°C° 0 mm 1 m/s 740 mmHg 51%
    10:00 +11°C° 0 mm 1 m/s 740 mmHg 50%
    11:00 +12°C° 0 mm 1 m/s 740 mmHg 49%
    12:00 +13°C° 0 mm 1 m/s 740 mmHg 47%
    13:00 +14°C° 0 mm 1 m/s 739 mmHg 48%
    14:00 +14°C° 0 mm 1 m/s 739 mmHg 48%
    15:00 +14°C° 0 mm 1 m/s 739 mmHg 48%
    16:00 +12°C° 0 mm 1 m/s 739 mmHg 55%
    17:00 +10°C° 0 mm 1 m/s 740 mmHg 62%
    18:00 +8°C° 0 mm 1 m/s 740 mmHg 69%
    19:00 +7°C° 0 mm 1 m/s 740 mmHg 70%
    20:00 +7°C° 0 mm 1 m/s 740 mmHg 72%
    21:00 +7°C° 0 mm 1 m/s 741 mmHg 73%
    22:00 +6°C° 0 mm 1 m/s 741 mmHg 74%
    23:00 +6°C° 0 mm 1 m/s 741 mmHg 75%

    Poimâine, 1 Martie, Miercuri

    Timp Temperatura Precipitaţii Vânt Presiune Umiditate
    00:00 +5°C° 0 mm 1 m/s 741 mmHg 76%
    01:00 +5°C° 0 mm 1 m/s 741 mmHg 78%
    02:00 +5°C° 0 mm 1 m/s 741 mmHg 79%
    03:00 +4°C° 0 mm 1 m/s 741 mmHg 80%
    04:00 +4°C° 0 mm 1 m/s 741 mmHg 81%
    05:00 +4°C° 0 mm 1 m/s 741 mmHg 82%
    06:00 +3°C° 0 mm 0 m/s 741 mmHg 83%
    07:00 +5°C° 0 mm 0 m/s 741 mmHg 74%
    08:00 +7°C° 0 mm 0 m/s 741 mmHg 66%
    09:00 +10°C° 0 mm 0 m/s 741 mmHg 57%
    10:00 +12°C° 0 mm 1 m/s 741 mmHg 54%
    11:00 +13°C° 0 mm 1 m/s 740 mmHg 50%
    12:00 +15°C° 0 mm 1 m/s 740 mmHg 47%
    13:00 +15°C° 0 mm 1 m/s 739 mmHg 46%
    14:00 +15°C° 0 mm 1 m/s 739 mmHg 45%
    15:00 +15°C° 0 mm 1 m/s 738 mmHg 44%
    16:00 +13°C° 0 mm 1 m/s 739 mmHg 52%
    17:00 +11°C° 0 mm 1 m/s 739 mmHg 59%
    18:00 +9°C° 0 mm 1 m/s 739 mmHg 67%
    19:00 +8°C° 0 mm 1 m/s 739 mmHg 66%
    20:00 +8°C° 0 mm 1 m/s 739 mmHg 65%
    21:00 +7°C° 0 mm 2 m/s 739 mmHg 64%
    22:00 +7°C° 0 mm 1 m/s 739 mmHg 64%
    23:00 +7°C° 0 mm 1 m/s 739 mmHg 64%

    2 Martie, Joi

    Timp Temperatura Precipitaţii Vânt Presiune Umiditate
    00:00 +6°C° 0 mm 1 m/s 739 mmHg 64%
    01:00 +6°C° 0 mm 1 m/s 738 mmHg 66%
    02:00 +6°C° 0 mm 1 m/s 738 mmHg 69%
    03:00 +5°C° 0 mm 1 m/s 738 mmHg 72%
    04:00 +5°C° 0 mm 1 m/s 738 mmHg 74%
    05:00 +5°C° 0 mm 1 m/s 737 mmHg 76%
    06:00 +4°C° 0 mm 1 m/s 737 mmHg 78%
    07:00 +7°C° 0 mm 1 m/s 737 mmHg 70%
    08:00 +9°C° 0 mm 1 m/s 737 mmHg 62%
    09:00 +12°C° 0 mm 1 m/s 737 mmHg 54%
    10:00 +13°C° 0 mm 1 m/s 737 mmHg 51%
    11:00 +14°C° 0 mm 1 m/s 736 mmHg 48%
    12:00 +15°C° 0 mm 2 m/s 736 mmHg 45%
    13:00 +15°C° 0 mm 2 m/s 735 mmHg 46%
    14:00 +15°C° 0 mm 2 m/s 735 mmHg 46%
    15:00 +15°C° 0 mm 2 m/s 734 mmHg 46%
    16:00 +13°C° 0 mm 2 m/s 734 mmHg 53%
    17:00 +11°C° 0 mm 1 m/s 735 mmHg 60%
    18:00 +9°C° 0 mm 1 m/s 735 mmHg 67%
    19:00 +9°C° 0 mm 1 m/s 735 mmHg 65%
    20:00 +9°C° 0 mm 1 m/s 735 mmHg 64%
    21:00 +9°C° 0 mm 1 m/s 735 mmHg 63%
    22:00 +8°C° 0 mm 1 m/s 735 mmHg 62%
    23:00 +8°C° 0 mm 1 m/s 734 mmHg 62%

    3 Martie, Vineri

    Timp Temperatura Precipitaţii Vânt Presiune Umiditate
    00:00 +7°C° 0 mm 1 m/s 734 mmHg 62%
    01:00 +7°C° 0 mm 1 m/s 734 mmHg 64%
    02:00 +7°C° 0 mm 1 m/s 734 mmHg 65%
    03:00 +7°C° 0 mm 1 m/s 733 mmHg 67%
    04:00 +7°C° 0 mm 1 m/s 733 mmHg 68%
    05:00 +7°C° 0 mm 1 m/s 733 mmHg 70%
    06:00 +7°C° 0 mm 1 m/s 733 mmHg 71%
    07:00 +9°C° 0 mm 1 m/s 733 mmHg 65%
    08:00 +11°C° 0 mm 1 m/s 733 mmHg 59%
    09:00 +13°C° 0 mm 1 m/s 733 mmHg 53%
    10:00 +14°C° 0 mm 1 m/s 733 mmHg 50%
    11:00 +15°C° 0 mm 1 m/s 733 mmHg 48%
    12:00 +16°C° 0 mm 1 m/s 732 mmHg 45%
    13:00 +16°C° 0 mm 1 m/s 732 mmHg 44%
    14:00 +16°C° 0 mm 1 m/s 732 mmHg 43%
    15:00 +18°C° 0 mm 1 m/s 732 mmHg 43%
    16:00 +15°C° 0 mm 1 m/s 732 mmHg 49%
    17:00 +13°C° 0 mm 1 m/s 732 mmHg 55%
    18:00 +11°C° 0 mm 1 m/s 732 mmHg 62%
    19:00 +10°C° 0 mm 1 m/s 733 mmHg 63%
    20:00 +10°C° 0 mm 1 m/s 733 mmHg 64%
    21:00 +8°C° 0 mm 0 m/s 733 mmHg 65%
    22:00 +9°C° 0 mm 1 m/s 733 mmHg 64%
    23:00 +9°C° 0 mm 1 m/s 733 mmHg 62%

    4 Martie, Sâmbătă

    Timp Temperatura Precipitaţii Vânt Presiune Umiditate
    00:00 +9°C° 0 mm 1 m/s 733 mmHg 61%
    01:00 +9°C° 0 mm 1 m/s 733 mmHg 59%
    02:00 +9°C° 0 mm 1 m/s 733 mmHg 58%
    03:00 +7°C° 0 mm 2 m/s 733 mmHg 57%
    04:00 +7°C° 0 mm 2 m/s 733 mmHg 58%
    05:00 +7°C° 0 mm 2 m/s 734 mmHg 60%
    06:00 +7°C° 0 mm 2 m/s 734 mmHg 61%
    07:00 +9°C° 0 mm 2 m/s 734 mmHg 57%
    08:00 +12°C° 0 mm 2 m/s 734 mmHg 52%
    09:00 +14°C° 0 mm 2 m/s 735 mmHg 48%
    10:00 +15°C° 0 mm 2 m/s 735 mmHg 46%
    11:00 +16°C° 0 mm 2 m/s 734 mmHg 43%
    12:00 +17°C° 0 mm 2 m/s 734 mmHg 41%
    13:00 +17°C° 0 mm 2 m/s 734 mmHg 40%
    14:00 +17°C° 0 mm 2 m/s 734 mmHg 40%
    15:00 +17°C° 0 mm 2 m/s 734 mmHg 39%
    16:00 +15°C° 0 mm 1 m/s 734 mmHg 46%
    17:00 +13°C° 0 mm 1 m/s 735 mmHg 52%
    18:00 +10°C° 0 mm 0 m/s 735 mmHg 58%
    19:00 +11°C° 0 mm 1 m/s 736 mmHg 59%
    20:00 +11°C° 0 mm 1 m/s 737 mmHg 60%
    21:00 +11°C° 0 mm 1 m/s 737 mmHg 60%
    22:00 +10°C° 0,1 mm 1 m/s 738 mmHg 63%
    23:00 +10°C° 0,1 mm 1 m/s 738 mmHg 67%
    Arată mai mult